Flag for USA

Past Weather in 33°39'35"N, 85°49'53"W, USA — Yesterday and Last 2 Weeks

Now
74 °F

Scattered clouds.


Feels Like: 77 °F
Forecast: 77 / 62 °F
Wind: 7 mph from Southwest

Location: Anniston Metropolitan Airport

Current Time: Apr 7, 2020 at 1:24:58 pm

Latest Report: Apr 7, 2020 at 12:53 pm


Visibility: 10 mi

Pressure: 30.05 "Hg

Humidity: 57%

Dew Point: 58 °F

Location of 33°39'35"N, 85°49'53"WLocation

Past Weather in 33°39'35"N, 85°49'53"W — Graph

°F

33°39'35"N, 85°49'53"W Temperature Yesterday

Maximum temperature yesterday: 82 °F (at 1:53 pm)
Minimum temperature yesterday: 54 °F (at 2:53 am)
Average temperature yesterday: 67 °F

High & Low Weather Summary for the Past Weeks

 TemperatureHumidityPressure
High84 °F (Mar 27, 3:53 pm)100% (Mar 23, 7:53 pm)30.21 "Hg (Mar 23, 7:53 pm)
Low39 °F (Apr 2, 4:53 am)27% (Mar 30, 1:53 pm)29.67 "Hg (Mar 31, 1:53 pm)
Average64 °F71%29.98 "Hg
* Reported Mar 23 11:18 am — Apr 7 11:53 am, 33°39'35"N, 85°49'53"W. Weather by CustomWeather, © 2020

Note: Actual official high and low records may vary slightly from our data, if they occured in-between our weather recording intervals... More about our weather records

33°39'35"N, 85°49'53"W Weather History for the Previous 24 Hours

Scroll right to see more
 ConditionsComfort  
Time TempWeatherWind HumidityBarometerVisibility
11:53 am
Tue, Apr 7
74 °FSunny.7 mph57%30.05 "Hg10 mi
10:53 am71 °FPartly sunny.6 mph68%30.08 "Hg10 mi
9:53 am69 °FSunny.5 mph79%30.09 "Hg10 mi
8:53 am67 °FPartly sunny.5 mph81%30.09 "Hg10 mi
7:53 am64 °FPartly sunny.No wind90%30.08 "Hg9 mi
6:53 am61 °FScattered clouds.No wind93%30.06 "Hg7 mi
5:53 am60 °FOvercast.No wind93%30.06 "Hg10 mi
4:53 am60 °FPassing clouds.No wind93%30.04 "Hg10 mi
3:53 am60 °FClear.No wind93%30.03 "Hg10 mi
2:53 am61 °FClear.No wind90%30.03 "Hg10 mi
1:53 am62 °FClear.No wind86%30.04 "Hg10 mi
12:53 am62 °FClear.No wind86%30.04 "Hg10 mi
11:53 pm
Mon, Apr 6
62 °FClear.No wind90%30.05 "Hg10 mi
10:53 pm63 °FClear.No wind84%30.05 "Hg10 mi
9:53 pm65 °FClear.No wind78%30.06 "Hg10 mi
8:53 pm67 °FPassing clouds.No wind73%30.05 "Hg10 mi
7:53 pm70 °FClear.No wind66%30.03 "Hg10 mi
6:53 pm72 °FSunny.3 mph64%30.02 "Hg10 mi
5:53 pm77 °FSunny.5 mph47%30.01 "Hg10 mi
4:53 pm80 °FSunny.9 mph38%30.01 "Hg10 mi
3:53 pm81 °FSunny.7 mph38%30.02 "Hg10 mi
2:53 pm81 °FSunny.5 mph38%30.03 "Hg10 mi
1:53 pm82 °FSunny.7 mph41%30.06 "Hg10 mi
Weather by CustomWeather, © 2020

See weather overview

Advertising